Showing default

R5-S4, 60206

Orbit data source: Space-Track

R5-S4, 60206 is a payload satellite owned by NASA JSC (US) in SSO that was launched on Thu, 04 Jul 2024 UTC via an FIREFLY ALPHA launch vehicle from the Air Force Western Test Range (AFWTR). Payload-class satellites include a variety of spacecraft equipped with specific instruments for various scientific and technological missions. These include communications satellites like Starlink; space stations such as the ISS; scientific satellites like the Hubble; Earth observation satellites from companies like Planet Labs, Umbra, and HawkEye 360; GPS; miniature CubeSats for education and research; and military/defense satellites.

Loading next visibility...
Identifier
60206, 2024-125D
Orbit
SSO
Country
Flag of USUS
Related business
Manufacturer
NASA JSC
Mission
Operational Civil Technology
Bus & Motor
CUBESAT 6U, Unknown motor
Mass
10 kg wet, ~10 kg dry
Launch date (UTC)
2024-07-04 (1 year ago)
Launch vehicle
FIREFLY ALPHA
Launch site
Air Force Western Test Range (AFWTR)
Object type
Payload
Rocket body
Debris
Shape & HBR
Box, 0.1 m
Radar Cross Section
0.035 m², Medium (>0.1 m² and < 1m²)

Expand to show TLE details & history
Last TLE update: 16 hours ago

TLE from 16 hours ago
0 R5-S4
1 60206U 24125D   25303.55864438  .00019771  00000-0  57589-3 0  9996
2 60206  97.2630 152.0292 0019153 345.4971  14.5721 15.35246292 73803
Epoch: 2025-10-30T13:24Z
TLE epoch observation values (Epoch: 2025-10-30T13:24:26.874Z)
Latitude
0.00002°
Longitude
-88.19848°
Altitude
450.627 km
Speed
7.649 km/s
True Right ascension
10h 08m 07s
True Declination
0° 00' 00"
Sunlit
Object was in daylight at epoch
Visualization orbit readout
Latitude
Unknown
Longitude
Unknown
Altitude
Unknown
Speed
Unknown
Apparent Right ascension
Unknown
Apparent Declination
Unknown
Sunlit
N/A
Visualization observer readout
Local Sidereal Time
01:29:22
Azimuth
Unknown
Elevation
Unknown
Doppler factor
Unknown
Orbital elements
Apogee altitude
470.22 km
Perigee altitude
444.037 km
Semi-major axis
6,835.265 km
Eccentricity
0.00192
Inclination
97.263°
RAAN
152.0292°
Arg. of periapsis
345.4971°
True anomaly
14.62745°
Mean anomaly
14.5721°
Eccentric anomaly
14.59976°
Mean motion
3.8407 °/min
Orbital period
93.73 mins
BSTAR
0.00057589
Loading maneuver chart data...
Computing Atmospheric mass density...
Loading historical data...
Loading historical data...
Loading historical data...
Loading historical data...
Loading historical data...
Loading historical data...
Loading historical data...

Documentation

Showing up to 5 results
|